HL124 RKSS-RKSI

Flight info

Callsign HL124
Flight time N/A
Altitude 6000
Route SEL1W SEL
Aircraft C25C/M-SDE2E3FGHRWXY/LB1

Departure

Time 2026-05-01 07:56
Airport Gimpo International Airport (RKSS)

Arrival

Time N/A
Airport Incheon International Airport (RKSI)
Time Latitude Longitude Altitude Speed Heading
2026-05-01 07:41 37.55458 126.78960 60 ft 0 kts 226°
2026-05-01 07:53 37.55456 126.78959 60 ft 0 kts 191°
2026-05-01 07:53 37.55453 126.78960 57 ft 3 kts 162°
2026-05-01 07:54 37.55477 126.79034 60 ft 10 kts 45°
2026-05-01 07:55 37.55544 126.79120 60 ft 0 kts 42°
2026-05-01 07:55 37.55731 126.78936 61 ft 77 kts 314°
2026-05-01 07:56 37.58020 126.76034 2423 ft 180 kts 313°
2026-05-01 07:56 37.59868 126.73720 3993 ft 208 kts 315°
2026-05-01 07:57 37.60925 126.72381 3994 ft 221 kts 315°
2026-05-01 07:57 37.62539 126.69116 3992 ft 230 kts 283°
2026-05-01 07:58 37.61624 126.65211 3978 ft 251 kts 231°
2026-05-01 07:58 37.58339 126.63689 3998 ft 267 kts 184°
2026-05-01 07:59 37.54732 126.64677 3996 ft 274 kts 153°
2026-05-01 07:59 37.51426 126.66982 4004 ft 270 kts 151°
2026-05-01 08:00 37.44931 126.71655 4000 ft 268 kts 151°
2026-05-01 08:01 37.39946 126.74595 3989 ft 262 kts 185°
2026-05-01 08:01 37.38232 126.73988 3964 ft 254 kts 207°
2026-05-01 08:01 37.36634 126.73067 3849 ft 251 kts 210°
2026-05-01 08:02 37.33515 126.71112 3608 ft 250 kts 211°
2026-05-01 08:02 37.31961 126.70135 3490 ft 250 kts 211°
2026-05-01 08:03 37.29357 126.68502 3290 ft 248 kts 211°
2026-05-01 08:03 37.27813 126.67538 3177 ft 248 kts 211°
2026-05-01 08:03 37.25130 126.65230 3039 ft 221 kts 250°
2026-05-01 08:04 37.25930 126.62199 2945 ft 199 kts 333°
2026-05-01 08:04 37.28598 126.61534 2814 ft 192 kts 323°
2026-05-01 08:05 37.30737 126.59664 2714 ft 180 kts 324°
2026-05-01 08:05 37.31672 126.58842 2669 ft 148 kts 323°
2026-05-01 08:05 37.32460 126.58148 2632 ft 135 kts 323°
2026-05-01 08:06 37.33964 126.56814 2612 ft 131 kts 323°
2026-05-01 08:06 37.35478 126.55472 2436 ft 138 kts 323°
2026-05-01 08:07 37.37081 126.54054 2064 ft 144 kts 321°
2026-05-01 08:07 37.38713 126.52606 1697 ft 137 kts 320°
2026-05-01 08:08 37.39444 126.51962 1508 ft 122 kts 319°
2026-05-01 08:08 37.40798 126.50751 1183 ft 117 kts 317°
2026-05-01 08:09 37.42105 126.49598 879 ft 112 kts 318°
2026-05-01 08:09 37.42738 126.49036 738 ft 112 kts 317°